This demonstration page uses our WeatherBlox Daily Observations layout. Learn more.

38.89511, -77.03637

Hourly Observations for December 26, 2016

Temp ( °F °C ) Dew Point ( °F °C ) Humidity (%) Winds ( mph kmh ) Pressure ( in mb ) Visibility ( mi km ) Precip ( " mm )
12:52 am 00:52 Cloudy 39 3.9 36 2.2 89 89 Calm 30.64 1038 10 16.0934 0 0
1:52 am 01:52 Cloudy 39 3.9 36 2.2 89 89 NE 3 6 30.65 1038 10 16.0934 0 0
2:52 am 02:52 Cloudy 40 4.4 36 2.2 86 86 Calm 30.66 1038 10 16.0934 0 0
3:03 am 03:03 Cloudy 39 4 37 3 93 93 NE 3 6 30.65 1038 10 16.0934 0 0
3:52 am 03:52 Cloudy 40 4.4 37 2.8 89 89 NE 5 7 30.65 1038 10 16.0934 0 0
4:52 am 04:52 Cloudy 40 4.4 36 2.2 86 86 NE 6 9 30.63 1037 10 16.0934 0 0
5:52 am 05:52 Cloudy 40 4.4 37 2.8 89 89 NE 6 9 30.63 1037 10 16.0934 0 0
6:52 am 06:52 Cloudy 41 5 37 2.8 86 86 NNE 5 7 30.64 1038 10 16.0934 0 0
7:52 am 07:52 Cloudy 41 5 37 2.8 86 86 E 3 6 30.63 1037 10 16.0934 0 0
8:52 am 08:52 Cloudy 41 5 36 2.2 82 82 ENE 3 6 30.64 1038 10 16.0934 0 0
9:52 am 09:52 Cloudy 42 5.6 37 2.8 82 82 NE 5 7 30.64 1038 10 16.0934 0 0
10:52 am 10:52 Cloudy 42 5.6 37 2.8 82 82 ENE 5 7 30.62 1037 10 16.0934 0 0
11:52 am 11:52 Cloudy 44 6.7 37 2.8 76 76 N 5 7 30.57 1035 10 16.0934 0 0
12:15 pm 12:15 Cloudy 44 6.7 37 2.8 76 76 N 3 6 30.56 1035 10 16.0934 0 0
12:52 pm 12:52 Cloudy 45 7.2 38 3.3 77 77 Calm 30.55 1035 10 16.0934 0 0
1:52 pm 13:52 Cloudy 44 6.7 38 3.3 79 79 SE 3 6 30.51 1033 9 14.48406 0 0
2:32 pm 14:32 Cloudy 45 7 39 4 81 81 S 6 9 30.48 1032 10 16.0934 0 0
2:41 pm 14:41 Cloudy 45 7.2 40 4.4 83 83 S 6 9 30.48 1032 10 16.0934 0 0
2:52 pm 14:52 Cloudy 45 7.2 40 4.4 83 83 S 7 11 30.46 1032 10 16.0934 0 0
3:52 pm 15:52 Cloudy 46 7.8 40 4.4 79 79 S 7 11 30.44 1031 10 16.0934 0 0
4:52 pm 16:52 Cloudy 46 7.8 41 5 83 83 S 5 7 30.42 1030 10 16.0934 0 0
5:52 pm 17:52 Cloudy 45 7.2 41 5 86 86 S 6 9 30.41 1030 10 16.0934 0 0
6:52 pm 18:52 Cloudy 45 7.2 41 5 86 86 S 7 11 30.37 1028 10 16.0934 0 0
7:52 pm 19:52 Mostly Cloudy 45 7.2 41 5 86 86 S 10 17 30.33 1027 10 16.0934 0 0
8:52 pm 20:52 Cloudy 45 7.2 41 5 86 86 S 14 22 30.29 1026 10 16.0934 0 0
9:52 pm 21:52 Mostly Cloudy 45 7.2 42 5.6 90 90 S 12 19 30.24 1024 10 16.0934 0 0
10:49 pm 22:49 Mostly Cloudy 48 9 43 6 82 82 S 14 22 30.21 1023 10 16.0934 0 0
10:52 pm 22:52 Mostly Cloudy 48 8.9 43 6.1 83 83 S 12 19 30.22 1023 10 16.0934 0 0
11:52 pm 23:52 Cloudy 48 8.9 43 6.1 83 83 S 15 24 30.16 1021 10 16.0934 0 0

Powered by AerisWeather